Regional Weather Roundup
Issued by NWS

Home | Current Version | Previous Version | Graphics & Text | Print | Product List | Glossary On
Versions: 1 2 3 4 5 6 7 8 9 10 11 12 13 14 15 16 17 18 19 20 21 22 23 24 25 26 27 28 29 30 31 32 33 34 35 36 37 38 39 40 41 42 43 44 45 46 47 48 49 50
000
ASUS43 KDMX 241206
RWRIA

WEATHER ROUNDUP FOR IOWA
NATIONAL WEATHER SERVICE DES MOINES IA
700 AM CDT FRI MAR 24 2017

NOTE: "FAIR" INDICATES FEW OR NO CLOUDS BELOW 12,000 FEET WITH NO
SIGNIFICANT WEATHER AND/OR OBSTRUCTIONS TO VISIBILITY.

* - THESE STATIONS ARE NOT NWS STATIONS...THUS NOT UNDER NWS
QUALITY CONTROL.  THEY ALSO DO NOT REPORT WEATHER SUCH
AS PRECIPITATION OR FOG.

IAZ001>003-012>014-020>022-031>034-043>046-241300-
   NORTHWEST IOWA

CITY           SKY/WX    TMP DP  RH WIND       PRES   REMARKS
CARROLL *      CLOUDY    46  46 100 CALM      29.76R
CHEROKEE *     CLOUDY    42  42 100 N8        29.83R
LE MARS *      CLOUDY    41  41 100 N13       29.84R
ORANGE CITY *  DRIZZLE   39  39 100 N10       29.83F WCI  32
SHELDON *      CLOUDY    39  39 100 N16       29.83R FOG     WCI  30
SIOUX CITY     CLOUDY    45  45 100 N9        29.81R
6HR MIN TEMP:  45; 6HR MAX TEMP:  51; 6HR PCP:  0.34;

SPENCER        LGT RAIN  40  39  97 N13       29.83R WCI  32
6HR MIN TEMP:  40; 6HR MAX TEMP:  42; 6HR PCP:  0.11;

STORM LAKE *   CLOUDY    41  39  93 NE14G21   29.79F FOG
$$

IAZ055>058-069>071-079>083-090>094-241300-
   SOUTHWEST IOWA

CITY           SKY/WX    TMP DP  RH WIND       PRES   REMARKS
ATLANTIC *     CLOUDY    57  50  77 CALM      29.77R
AUDUBON *      CLOUDY    50  46  87 CALM      29.78R
CLARINDA *     CLOUDY    63  50  63 CALM      29.80R
COUNCIL BLFS * LGT RAIN  55  55 100 CALM      29.78R
CRESTON *      CLOUDY    57  48  72 S10       29.79R
HARLAN  *      CLOUDY    52  52 100 SW3       29.80R
LAMONI         PTCLDY    58  47  66 S8        29.79R
6HR MIN TEMP:  58; 6HR MAX TEMP:  64;

RED OAK *      CLOUDY    63  50  63 S9        29.77R
SHENANDOAH *   CLOUDY    61  50  67 SE5       29.76F
$$

IAZ047>049-059>061-072>074-084-241300-
   CENTRAL IOWA

CITY           SKY/WX    TMP DP  RH WIND       PRES   REMARKS
AMES           CLOUDY    44  42  93 CALM      29.76S
6HR MIN TEMP:  44; 6HR MAX TEMP:  50;

ANKENY *       PTCLDY    45  41  87 CALM      29.78S
BOONE *        CLOUDY    50  45  81 CALM      29.75S
CHARITON *     PTCLDY    59  48  67 S15       29.79R
DES MOINES     MOCLDY    58  46  64 W3        29.77R
6HR MIN TEMP:  53; 6HR MAX TEMP:  62;

GRINNELL*      CLOUDY    52  46  79 S9        29.79S
MARSHALLTOWN   MOCLDY    44  41  89 SE7       29.77R
6HR MIN TEMP:  42; 6HR MAX TEMP:  49;

NEWTON *       MOCLDY    50  45  81 NW7       29.78R
PELLA *        CLOUDY    58  47  67 S10       29.79S
PERRY *          N/A     49  40  70 CALM      29.76S
$$

IAZ004>006-015-016-023>025-035-036-241300-
   NORTH CENTRAL IOWA

CITY           SKY/WX    TMP DP  RH WIND       PRES   REMARKS
ALGONA *       LGT RAIN  41  41 100 N13G22    29.82F
CLARION *      CLOUDY    43  43 100 N12G22    29.78R
ESTHERVILLE    CLOUDY    38  38 100 N10       29.84R FOG     WCI  31
6HR MIN TEMP:  38; 6HR MAX TEMP:  41; 6HR PCP:  0.25;

FORT DODGE *   CLOUDY    45  39  81 N12       29.79R
MASON CITY     CLOUDY    39  37  92 N14       29.82R FOG     WCI  31
6HR MIN TEMP:  39; 6HR MAX TEMP:  40; 6HR PCP:  0.04;

FOREST CITY *  CLOUDY    41  41 100 N9        29.80S FOG
WEBSTER CITY * PTCLDY    46  43  87 SE8       29.73S
IOWA FALLS *     N/A     46  41  83 E3        29.77S
$$

IAZ007>011-017>019-026>030-037>042-050>054-066-241300-
   NORTHEAST IOWA

CITY           SKY/WX    TMP DP  RH WIND       PRES   REMARKS
CEDAR RAPIDS   CLOUDY    52  48  86 S13       29.80R
6HR MIN TEMP:  41; 6HR MAX TEMP:  52;

CHARLES CITY * PTCLDY    39  39 100 SE10      29.77F WCI  32
CLINTON *      CLOUDY    48  44  86 S9        29.86S
DECORAH *      CLOUDY    39  37  93 SE7       29.79S WCI  34
DUBUQUE        CLOUDY    48  44  86 S13       29.82R
6HR MIN TEMP:  41; 6HR MAX TEMP:  48;

MONTICELLO *   CLOUDY    50  46  87 S6        29.81R
OELWEIN *      MOCLDY    41  41 100 SE7       29.80S
WATERLOO       CLOUDY    40  38  93 E7        29.79R
6HR MIN TEMP:  39; 6HR MAX TEMP:  44;

$$

IAZ064-065-067-068-078-241300-
   EAST CENTRAL IOWA

CITY           SKY/WX    TMP DP  RH WIND       PRES   REMARKS
DAVENPORT      CLEAR     53  45  74 S18       29.86S
6HR MIN TEMP:  45; 6HR MAX TEMP:  53;

IOWA CITY      MOCLDY    46  43  89 S5        29.84R
6HR MIN TEMP:  41; 6HR MAX TEMP:  47;

MUSCATINE *    CLOUDY    37  36  93 CALM      29.86S
QUAD CITIES    CLEAR     54  45  71 S10       29.85S
6HR MIN TEMP:  48; 6HR MAX TEMP:  54;

$$

IAZ062-063-075>077-085>089-095>099-241300-
   SOUTHEAST IOWA

CITY           SKY/WX    TMP DP  RH WIND       PRES   REMARKS
BURLINGTON     CLOUDY    54  48  80 S12       29.87R
6HR MIN TEMP:  50; 6HR MAX TEMP:  56;

FAIRFIELD *    CLOUDY    59  48  67 S14       29.82S
FORT MADISON * CLOUDY    54  48  82 S10       29.88R
KEOKUK *       CLEAR     61  50  67 S15       29.86S
OSKALOOSA *      N/A     51  47  85 S9        29.81R
CENTERVILLE *    N/A     59  48  67 S13       29.83R
OTTUMWA        PTCLDY    57  50  77 S14       29.80S
6HR MIN TEMP:  53; 6HR MAX TEMP:  57;

WASHINGTON *   PTCLDY    54  48  82 S13       29.84S
$$

ABBREVIATIONS USED IN REMARKS
   TC - TEMPERATURES IN CELSIUS
  WCI - WIND CHILL INDEX
   HX - HEAT INDEX
  VSB - VISIBILITY
$$




USA.gov is the U.S. government's official web portal to all federal, state and local government web resources and services.